Location: Bouysse
(45.3674°N, 1.8947°E)
Time: 04:58:44
(UTC+00:00)

CBERS-1 - Pass Details

Date: 07 June 2020
Orbit: 770 x 776 km, 98.6° (Epoch: 14 July)

Event Time Altitude Azimuth Distance (km) Brightness Sun altitude
Rises 02:15:18 0° 13° (NNE) 3,261 8.6 -14.4°
Reaches altitude 10° 02:17:37 10° 13° (NNE) 2,331 7.6 -14.2°
Maximum altitude 02:22:46 84° 285° (WNW) 785 4.0 -13.6°
Enters shadow 02:26:41 18° 199° (SSW) 1,846 5.4 -13.2°
